Weather at Minneapolis–Saint Paul International Airport / Wold–Chamberlain Field

Public forecast

Using degrees Fahrenheit for public forecast. Weather courtesy of forecast.io.

Current aviation weather report (METAR) for Minneapolis–Saint Paul International Airport / Wold–Chamberlain Field

Retrieved 2021/10/19 20:53 UTC (56 minutes ago):

KMSP 192053Z 19008KT 170V230 10SM FEW180 SCT250 23/07 A2988 RMK AO2 SLP117 T02280072 56007

Aviation forecast (TAF) for Minneapolis–Saint Paul International Airport / Wold–Chamberlain Field

Retrieved 2021/10/19 18:22 UTC (3 hours ago):

TAF KMSP 191720Z 1918/2024 17006KT P6SM FEW200 FM192300 14004KT P6SM BKN250 FM201200 05006KT P6SM BKN100 FM201500 06010G16KT P6SM -SHRA BKN020 PROB30 2017/2020 4SM -TSRA OVC010CB FM202200 04012G18KT P6SM -SHRA OVC015